Regional Weather Roundup
Issued by NWS State College, PA

Home | Current Version | Previous Version | Text Only | Print | Product List | Glossary On
Versions: 1 2 3 4 5 6 7 8 9 10 11 12 13 14 15 16 17 18 19 20 21 22 23 24 25 26 27 28 29 30 31 32 33 34 35 36 37 38 39 40 41 42 43 44 45 46 47 48 49 50
000
ASUS41 KCTP 300510
RWRCTP

REGIONAL WEATHER ROUNDUP
NATIONAL WEATHER SERVICE STATE COLLEGE PA
100 AM EDT FRI SEP 30 2016

Note: "fair" indicates few or no clouds below 12,000 feet with no
significant weather and/or obstructions to visibility.

* = STATION THAT DOES NOT REPORT PRECIPITATION /E.G. RAIN...SNOW...ETC/
    THUNDER OR FOG.

PAZ002>004-007>009-013>016-020>023-029>032-300600-
WESTERN PENNSYLVANIA

CITY           SKY/WX    TMP DP  RH WIND       PRES   REMARKS
ERIE           CLOUDY    62  58  86 E6        30.23F
MEADVILLE      CLOUDY    57  54  89 E9        30.21F
FRANKLIN*        N/A     55  52  88 E7        30.21F
NEW CASTLE     LGT RAIN  58  57  97 E14       30.16F
BEAVER COUNTY  NOT AVBL
BUTLER*        CLOUDY    57  54  88 E6        30.21F
PITTSBURGH INT RAIN      58  58 100 E14       30.15F FOG
PITTSBURGH     LGT RAIN  58  55  90 N3        30.17S FOG
INDIANA*       CLOUDY    57  55  94 E8        30.22R
LATROBE        LGT RAIN  59  57  94 CALM      30.17F
WASHINGTON CO* CLOUDY    59  55  88 E12G17    30.14F
$$

PAZ004>006-010>012-017>019-024>028-033>037-041-042-045-046-049>053-300600-
CENTRAL PENNSYLVANIA

CITY           SKY/WX    TMP DP  RH WIND       PRES   REMARKS
BRADFORD       CLOUDY    55  53  93 E9        30.27F
DUBOIS         CLOUDY    55  51  86 E12G20    30.21F
CLEARFIELD     CLOUDY    54  54 100 E14       30.25F
JOHNSTOWN      LGT RAIN  54  54 100 E10       30.20R FOG
ALTOONA        LGT RAIN  55  55 100 E8G23     30.22F
STATE COLLEGE  CLOUDY    55  53  94 NE9       30.26F
WILLIAMSPORT   CLOUDY    59  52  77 E13       30.29F
SELINSGROVE    CLOUDY    59  55  87 E8        30.27F
FT INDIANTOWN  LGT RAIN  57  55  94 E12       30.26F
CAPITAL CITY   LGT RAIN  59  55  87 E9        30.24F
HARRISBURG     LGT RAIN  59  57  93 E9        30.24F
YORK           CLOUDY    59  58  96 E14       30.22F
$$

PAZ038>040-043-044-047-048-054-055-060>062-067>071-300600-
EASTERN PENNSYLVANIA

CITY           SKY/WX    TMP DP  RH WIND       PRES   REMARKS
SCRANTON       LGT RAIN  55  49  80 NE12      30.32S
MOUNT POCONO   LGT RAIN  49  46  90 E16G23    30.34F
ALLENTOWN      CLOUDY    57  52  83 NE14      30.31F
QUAKERTOWN*    CLOUDY    57  54  88 NE9G16    30.30F
READING        RAIN      58  54  86 VRB5      30.27S
LANCASTER      RAIN      58  57  97 E13G21    30.24F
COATESVILLE    LGT RAIN  55  55 100 NE7G30    30.26R
POTTSTOWN      LGT RAIN  57  54  89 NE13G22   30.28F
BLUE BELL      CLOUDY    55  54  94 NE12G25   30.25F
DOYLESTOWN     LGT RAIN  58  55  90 NE9G21    30.28F
WILLOW GROVE   NOT AVBL
NORTH PHILA    LGT RAIN  59  57  93 NE17G24   30.28F
PHILADELPHIA   RAIN      60  57  89 NE20G25   30.22F FOG
$$




USA.gov is the U.S. government's official web portal to all federal, state and local government web resources and services.